Regional Weather Roundup
Issued by NWS

Home | Current Version | Previous Version | Text Only | Print | Product List | Glossary Off
Versions: 1 2 3 4 5 6 7 8 9 10 11 12 13 14 15 16 17 18 19 20 21 22 23 24 25 26 27 28 29 30 31 32 33 34 35 36 37 38 39 40 41 42 43 44 45 46 47 48 49 50

000
ASUS43 KIND 290959
RWRIN

WEATHER ROUNDUP FOR INDIANA
NATIONAL WEATHER SERVICE INDIANAPOLIS IN
600 AM EDT SAT APR 29 2017

NOTE: "FAIR" INDICATES FEW OR NO CLOUDS BELOW 12,000 FEET WITH NO
SIGNIFICANT WEATHER AND/OR OBSTRUCTIONS TO VISIBILITY.

* - STATION DOES NOT REPORT WEATHER SUCH AS PRECIPITATION OR FOG.

+ - STATION NOT QUALITY CONTROLLED BY THE NATIONAL WEATHER SERVICE.
    USE DATA WITH CAUTION...ESPECIALLY DEWPOINT AND RELATIVE
    HUMIDITY OBSERVATIONS.

INZ001>003-010>013-019-020-291100-
NORTHWEST INDIANA

CITY           SKY/WX    TMP DP  RH WIND       PRES   REMARKS
GARY /AIRPORT/ CLOUDY    46  41  81 N14G28    30.07R
MONTICELLO +   CLOUDY    53  51  94 N6        30.01R
RENSSELAER +   CLOUDY    48  43  81 N5        30.05R

$$

LMZ046-743>745-291100-
SOUTHERN LAKE MICHIGAN

STATION/POSITION TIME  TEMP    WIND        PRES    WAVE
                       AIR SEA DIR/SP/G            HT
                 (UTC) (F)     (DEG/KT/KT) (MB)    (FT)
BURNS HARBOR     0940   46      20/ 22/ 26 1016.9R
MICHIGAN CITY    0930   46      20/ 24/ 27   N/A
5NW MICH CITY    0950   44 46                N/A     5

$$

INZ004-005-014>016-021>024-291100-
NORTH CENTRAL INDIANA

CITY           SKY/WX    TMP DP  RH WIND       PRES   REMARKS
GOSHEN         CLOUDY    53  46  77 NE8       30.01R
PERU/GRISSOM   RAIN      54  54 100 NE6       29.97F FOG
SOUTH BEND     CLOUDY    50  44  80 N9        30.02R

$$

INZ006>009-017-018-025>027-291100-
NORTHEAST INDIANA

CITY           SKY/WX    TMP DP  RH WIND       PRES   REMARKS
ANGOLA *+      MOCLDY    52  39  62 CALM      30.00R
FORT WAYNE     CLOUDY    55  53  93 NE5       30.00R FOG
KENDALLVILLE + CLOUDY    53  50  92 NE3       30.01R

$$

INZ028-029-035-036-043>045-051>053-291100-
WEST CENTRAL INDIANA

CITY           SKY/WX    TMP DP  RH WIND       PRES   REMARKS
CRAWFORDSVL +  LGT RAIN  53  53 100 N7        29.98R
GREENCASTLE +  RAIN      54  54 100 CALM      29.99R
LAFAYETTE      LGT RAIN  53  53 100 N7        29.98R FOG
TERRE HAUTE    RAIN      57  55  93 CALM      29.99R FOG

$$

INZ030>032-037>040-046>048-054>057-064-065-291100-
CENTRAL INDIANA

CITY           SKY/WX    TMP DP  RH WIND       PRES   REMARKS
INDIANAPOLIS   LGT RAIN  57  56  96 CALM      29.97R
-EAGLE CREEK   LGT RAIN  57  56  96 S5        29.97R FOG
KOKOMO +       LGT RAIN  54  53  97 N10       29.97F FOG
SHELBYVILLE    LGT RAIN  62  59  90 NW5       29.95R

$$

INZ033-034-041-042-049-050-058-059-291100-
EAST CENTRAL INDIANA

CITY           SKY/WX    TMP DP  RH WIND       PRES   REMARKS
MUNCIE         LGT RAIN  57  55  93 NE8       29.94F FOG
RICHMOND +     FOG       59  59 100 W5        29.98R VSB 1/4

$$

INZ060-061-067>069-081>083-085>088-291100-
SOUTHWEST INDIANA

CITY           SKY/WX    TMP DP  RH WIND       PRES   REMARKS
EVANSVILLE     TSTM      66  63  90 N12G28    29.91R FOG

$$

INZ062-063-066-070>080-084-089>092-291100-
SOUTH CENTRAL AND SOUTHEAST INDIANA

CITY           SKY/WX    TMP DP  RH WIND       PRES   REMARKS
BLOOMINGTON    LGT RAIN  62  60  93 SW6       29.96R FOG
MADISON *+     CLOUDY    63  61  94 S5        29.98R
SEYMOUR +      TSTM      64  64 100 SE8       29.93F

$$




USA.gov is the U.S. government's official web portal to all federal, state and local government web resources and services.